Ubon Ratchathani, Thailand

3:52 PM +07 on September 25, 2017 (GMT +0700)
Ubon Ratchathani

Weather History for VTUU - November, 2012

Change the Weather History Date:

Thursday, November 22, 2012

  Actual Average Record
Temperature  
Mean Temperature 86 °F -  
Max Temperature 97 °F 86 °F - ()
Min Temperature 74 °F 64 °F - ()
Cooling Degree Days 20    
Growing Degree Days 36 (Base 50)    
Moisture  
Dew Point 72 °F    
Average Humidity 64    
Maximum Humidity 94    
Minimum Humidity 37    
Precipitation  
Precipitation 0.00 in 0.01 in - ()
Sea Level Pressure  
Sea Level Pressure 29.78 in    
Wind  
Wind Speed 3 mph ()    
Max Wind Speed 6 mph    
Max Gust Speed -    
Visibility 5.8 miles    
Events      
T = Trace of Precipitation, MM = Missing Value Source: Averaged Metar Reports

Daily Weather History Graph

Daily Weather History Graph

Search for Another Location

Airport or City:

Trip Planner

Search our weather history database for the weather conditions in past years. The results will help you decide how hot, cold, wet, or windy it might be!

Date:

Astronomy

Nov. 22, 2012 Rise Set
Actual Time 6:05 AM +07 5:27 PM +07
Civil Twilight 5:43 AM +07 5:50 PM +07
Nautical Twilight 5:16 AM +07 6:16 PM +07
Astronomical Twilight 4:50 AM +07 6:42 PM +07
Moon 1:10 PM +07 (11/22) 12:45 AM +07 (11/22)
Length of Visible Light 12h 07m
Length of Day
11h 21m
Waxing Gibbous, 66% of the Moon is Illuminated
Nov 22
Waxing Gibbous
Nov 28
Full
Dec 6
Last Quarter
Dec 13
New
Dec 20
First Quarter

Hourly Weather History & Observations

Time (+07) Temp. Heat Index Dew Point Humidity Pressure Visibility Wind Dir Wind Speed Gust Speed Precip Events Conditions
1:00 AM 80 °F - 72 °F 69% 29.81 in 6 mi South 2.3 mph - -   Mist
1:00 AM 80.6 °F 84.6 °F 71.6 °F 74% 29.80 in 5.6 mi South 2.3 mph - N/A   Unknown
4:00 AM 78.8 °F - 71.6 °F 78% 29.80 in 5.6 mi East 2.3 mph - N/A   Unknown
6:00 AM 75.2 °F - 73.4 °F 94% 29.80 in 5.0 mi SE 2.3 mph - N/A   Unknown
6:30 AM 75.2 °F - 73.4 °F 94% 29.83 in 5.6 mi ESE 2.3 mph - N/A   Unknown
7:00 AM 76 °F - 73 °F 89% 29.86 in 6 mi East 2.3 mph - -   Clear
7:00 AM 77.0 °F - 73.4 °F 89% 29.83 in - East 2.3 mph - N/A   Clear
8:00 AM 82.4 °F 89.5 °F 75.2 °F 79% 29.83 in - SW 3.5 mph - N/A   Clear
9:00 AM 86.0 °F 95.1 °F 75.2 °F 70% 29.86 in - West 4.6 mph - N/A   Clear
10:00 AM 87.8 °F 95.6 °F 73.4 °F 62% 29.86 in 6.2 mi SSW 5.8 mph - N/A   Partly Cloudy
11:00 AM 89.6 °F 96.2 °F 71.6 °F 55% 29.86 in 6.2 mi WSW 4.6 mph - N/A   Partly Cloudy
12:00 PM 91.4 °F 96.8 °F 69.8 °F 49% 29.80 in 6.2 mi SSW 2.3 mph - N/A   Scattered Clouds
1:00 PM 93 °F - 69 °F 37% 29.79 in 6 mi West 3.5 mph - -   Partly Cloudy
1:00 PM 93.2 °F 98.8 °F 69.8 °F 46% 29.77 in 6.2 mi West 3.5 mph - N/A   Scattered Clouds
2:00 PM 93.2 °F 98.8 °F 69.8 °F 46% 29.74 in 6.2 mi SW 5.8 mph - N/A   Partly Cloudy
3:00 PM 95.0 °F 99.5 °F 68.0 °F 41% 29.68 in 6.2 mi WSW 5.8 mph - N/A   Partly Cloudy
4:00 PM 95.0 °F 99.5 °F 68.0 °F 41% 29.68 in 6.2 mi WNW 5.8 mph - N/A   Partly Cloudy
5:00 PM 93.2 °F 97.7 °F 68.0 °F 44% 29.68 in 6.2 mi SW 2.3 mph - N/A   Partly Cloudy
5:30 PM 91.4 °F 96.8 °F 69.8 °F 49% 29.71 in 6.2 mi WSW 2.3 mph - N/A   Scattered Clouds
6:00 PM 91.4 °F 98.4 °F 71.6 °F 52% 29.71 in 6.2 mi Calm Calm - N/A   Scattered Clouds
7:00 PM 89 °F - 74 °F 52% 29.74 in 5 mi Calm Calm - -   Haze
7:00 PM 89.6 °F 98.2 °F 73.4 °F 59% 29.71 in 5.0 mi Calm Calm - N/A   Scattered Clouds
8:00 PM 84.2 °F 94.1 °F 77.0 °F 79% 29.80 in 5.0 mi ESE 2.3 mph - N/A   Scattered Clouds
9:00 PM 82.4 °F 89.5 °F 75.2 °F 79% 29.80 in 5.6 mi SE 3.5 mph - N/A   Scattered Clouds
10:00 PM 82.4 °F 88.2 °F 73.4 °F 74% 29.80 in 5.6 mi SSE 3.5 mph - N/A   Scattered Clouds
11:00 PM 82.4 °F 88.2 °F 73.4 °F 74% 29.80 in 5.6 mi Calm Calm - N/A   Unknown